Location: Aranbee
(34.0885°N, 118.2342°W)
Time: 00:14:01
(UTC+00:00)

N. Korean satellite - Visible Passes

Search period start: 23 October 2020 00:00
Search period end: 02 November 2020 00:00
Orbit: 453 x 505 km, 97.2° (Epoch: 22 October)

Date Brightness Start Highest point End Pass type
(mag) Time Alt. Az. Time Alt. Az. Time Alt. Az.
23 Oct 6.4 13:31:48 10° N 13:35:10 62° WNW 13:38:32 10° SSW visible
24 Oct 10.0 01:37:32 10° SW 01:39:46 15° W 01:41:57 10° WNW visible
24 Oct 7.5 13:05:45 10° NNE 13:09:04 48° E 13:12:22 10° S visible
25 Oct 9.4 12:40:18 10° NE 12:42:53 20° E 12:45:27 10° SE visible
27 Oct 6.4 13:20:36 10° NNE 13:24:02 86° ESE 13:27:26 10° S visible
28 Oct 8.4 12:54:46 10° NNE 12:57:52 32° E 13:00:59 10° SSE visible
29 Oct 9.9 12:29:42 10° ENE 12:31:38 14° E 12:33:34 10° SE visible
30 Oct 6.5 13:35:34 10° N 13:38:55 53° WNW 13:42:15 10° SSW visible
31 Oct 10.1 01:41:48 10° SW 01:43:34 13° W 01:45:20 10° WNW visible
31 Oct 7.2 13:09:26 10° NNE 13:12:48 57° E 13:16:11 10° S visible
01 Nov 9.1 12:43:49 10° NE 12:46:36 23° E 12:49:24 10° SSE visible
